HYLAS 2

Last updated on Sat Jun 14 2025 00:02:45 GMT+0000 (Coordinated Universal Time)

1 38741U 12043B 25164.33087304 -.00000242 00000+0 00000+0 0 9996 2 38741 1.4731 85.7279 0002026 28.8848 193.8386 1.00273259 47072
UTC large
Height (km)
Speed (km/s)
/
Latitude / Longitude
Inclination (degrees)
Orbital Period (minutes)
Azimuth
Elevation
Range (km)
Doppler Factor

Next 0 passes for location: London (51.5072 / 0.1276)

Sorry there are no passes over London.